| time (UTC) | temp C | wind direction | speed KPH | gust KPH | rain 1hr cm | rain 24hr cm | rain mn cm | humidity % | barometer mb |
| 20260504193026 | 20 | 196 | 9.7 | 20.9 | 0.00 | 0.00 | 0.00 | 33 | 1005.2 |
| 20260504191526 | 20 | 211 | 4.8 | 27.4 | 0.00 | 0.00 | 0.00 | 33 | 1005.2 |
| 20260504190021 | 20 | 180 | 4.8 | 22.5 | 0.00 | 0.00 | 0.00 | 33 | 1005.2 |
| 20260504184523 | 20 | 176 | 4.8 | 30.6 | 0.00 | 0.00 | 0.00 | 34 | 1005.5 |
| 20260504183018 | 19 | 360 | 6.4 | 19.3 | 0.00 | 0.00 | 0.00 | 34 | 1005.5 |
| 20260504181518 | 20 | 200 | 4.8 | 12.9 | 0.00 | 0.00 | 0.00 | 34 | 1005.5 |
| 20260504180019 | 19 | 155 | 1.6 | 24.1 | 0.00 | 0.00 | 0.00 | 34 | 1005.5 |
| 20260504174514 | 18 | 212 | 8.0 | 22.5 | 0.00 | 0.00 | 0.00 | 34 | 1005.6 |
| 20260504173018 | 18 | 57 | 6.4 | 17.7 | 0.00 | 0.00 | 0.00 | 34 | 1005.7 |
| 20260504171512 | 18 | 59 | 6.4 | 24.1 | 0.00 | 0.00 | 0.00 | 34 | 1005.7 |
| 20260504081538 | 3 | 140 | 0.0 | 1.6 | 0.00 | 0.00 | 0.00 | 39 | 1008.7 |
| 20260504050016 | 0 | 144 | 0.0 | 3.2 | 0.00 | 0.00 | 0.00 | 39 | 1008.7 |
| 20260504044514 | 0 | 144 | 0.0 | 1.6 | 0.00 | 0.00 | 0.00 | 39 | 1008.8 |
| 20260504043013 | 0 | 177 | 0.0 | 0.0 | 0.00 | 0.00 | 0.00 | 39 | 1008.8 |
| 20260504041511 | 0 | 177 | 0.0 | 1.6 | 0.00 | 0.00 | 0.00 | 39 | 1008.8 |
| 20260504040010 | 0 | 177 | 0.0 | 0.0 | 0.00 | 0.00 | 0.00 | 39 | 1008.8 |
| 20260504034508 | 0 | 177 | 0.0 | 1.6 | 0.00 | 0.00 | 0.00 | 39 | 1008.7 |
| 20260504033006 | 0 | 233 | 0.0 | 0.0 | 0.00 | 0.00 | 0.00 | 39 | 1008.7 |
| 20260504031505 | 0 | 234 | 0.0 | 0.0 | 0.00 | 0.00 | 0.00 | 39 | 1008.6 |
| 20260504030003 | 0 | 234 | 0.0 | 1.6 | 0.00 | 0.00 | 0.00 | 38 | 1008.5 |
| 20260504024502 | 1 | 233 | 0.0 | 0.0 | 0.00 | 0.00 | 0.00 | 38 | 1008.6 |
| 20260504023101 | 1 | 234 | 0.0 | 0.0 | 0.00 | 0.00 | 0.00 | 38 | 1008.7 |
| 20260504021610 | 1 | 234 | 0.0 | 0.0 | 0.00 | 0.00 | 0.00 | 38 | 1008.6 |
| 20260504020105 | 1 | 233 | 0.0 | 0.0 | 0.00 | 0.00 | 0.00 | 38 | 1008.6 |
| 20260504014554 | 2 | 233 | 0.0 | 0.0 | 0.00 | 0.00 | 0.00 | 38 | 1008.5 |
| 20260504013056 | 2 | 234 | 0.0 | 1.6 | 0.00 | 0.00 | 0.00 | 38 | 1008.3 |
| 20260504011554 | 3 | 234 | 0.0 | 0.0 | 0.00 | 0.00 | 0.00 | 37 | 1008.2 |
| 20260504010052 | 4 | 234 | 0.0 | 1.6 | 0.00 | 0.00 | 0.00 | 37 | 1008.1 |
| 20260504004548 | 5 | 233 | 0.0 | 0.0 | 0.00 | 0.00 | 0.00 | 37 | 1008.0 |
| 20260504003049 | 6 | 234 | 0.0 | 0.0 | 0.00 | 0.00 | 0.00 | 36 | 1007.8 |
| 20260504001650 | 6 | 234 | 0.0 | 0.0 | 0.00 | 0.00 | 0.00 | 36 | 1007.7 |
| 20260504000046 | 7 | 234 | 0.0 | 1.6 | 0.00 | 0.00 | 0.00 | 35 | 1007.5 |
| 20260503234546 | 7 | 233 | 0.0 | 3.2 | 0.00 | 0.00 | 0.00 | 35 | 1007.3 |
| 20260503233045 | 8 | 269 | 3.2 | 12.9 | 0.00 | 0.00 | 0.00 | 35 | 1007.1 |
| 20260503231550 | 8 | 260 | 3.2 | 20.9 | 0.00 | 0.00 | 0.00 | 35 | 1007.1 |
| 20260503230044 | 8 | 229 | 3.2 | 14.5 | 0.00 | 0.00 | 0.00 | 35 | 1007.0 |
| 20260503224548 | 8 | 218 | 4.8 | 11.3 | 0.00 | 0.00 | 0.00 | 34 | 1007.1 |
| 20260503223044 | 8 | 234 | 6.4 | 25.7 | 0.00 | 0.00 | 0.00 | 35 | 1007.0 |
| 20260503221542 | 8 | 232 | 6.4 | 27.4 | 0.00 | 0.00 | 0.00 | 35 | 1006.8 |
| 20260503220041 | 9 | 246 | 1.6 | 19.3 | 0.00 | 0.00 | 0.00 | 35 | 1006.7 |
| 20260503214551 | 9 | 223 | 3.2 | 19.3 | 0.00 | 0.00 | 0.00 | 34 | 1006.6 |
| 20260503213104 | 9 | 207 | 6.4 | 20.9 | 0.00 | 0.00 | 0.00 | 34 | 1006.6 |
| 20260503211600 | 9 | 246 | 8.0 | 17.7 | 0.00 | 0.00 | 0.00 | 34 | 1006.5 |
| 20260503210039 | 9 | 298 | 6.4 | 19.3 | 0.00 | 0.00 | 0.00 | 34 | 1006.4 |
| 20260503210007 | 9 | 217 | 9.7 | 19.3 | 0.00 | 0.00 | 0.00 | 34 | 1006.3 |
| 20260503204557 | 10 | 276 | 8.0 | 16.1 | 0.00 | 0.00 | 0.00 | 34 | 1006.3 |
| 20260503203040 | 9 | 265 | 1.6 | 19.3 | 0.00 | 0.00 | 0.00 | 34 | 1006.1 |
| 20260503201538 | 9 | 281 | 4.8 | 17.7 | 0.00 | 0.00 | 0.00 | 34 | 1006.1 |
| 20260503200036 | 9 | 226 | 3.2 | 19.3 | 0.00 | 0.00 | 0.00 | 34 | 1006.1 |
| 20260503194535 | 8 | 289 | 8.0 | 16.1 | 0.00 | 0.00 | 0.00 | 34 | 1006.2 |